Regional Weather Roundup
Issued by NWS

Home | Current Version | Previous Version | Graphics & Text | Print | Product List | Glossary On
Versions: 1 2 3 4 5 6 7 8 9 10 11 12 13 14 15 16 17 18 19 20 21 22 23 24 25 26 27 28 29 30 31 32 33 34 35 36 37 38 39 40 41 42 43 44 45 46 47 48 49 50
000
ASUS45 KPSR 182100
RWRAZ

PRELIMINARY ARIZONA REGIONAL HOURLY WEATHER ROUNDUP
NATIONAL WEATHER SERVICE PHOENIX AZ
200 PM MST THU DEC 18 2014

NOTE: FAIR INDICATES FEW OR NO CLOUDS BELOW 12,000 FEET WITH NO
SIGNIFICANT WEATHER AND/OR OBSTRUCTIONS TO VISIBILITY.

AZZ001>003-036-182200-
NORTHWEST ARIZONA

CITY           SKY/WX    TMP DP  RH WIND       PRES   REMARKS
KINGMAN        PTSUNNY   51  36  56 N9        30.13F
$$

AZZ004>008-015-016-018-182200-
NORTH CENTRAL ARIZONA

CITY           SKY/WX    TMP DP  RH WIND       PRES   REMARKS
GRAND CANYON   PTSUNNY   35  28  75 CALM      30.11F
PRESCOTT       FAIR      43  28  55 CALM      30.10F
FLAGSTAFF      NOT AVBL
PAYSON         PTSUNNY   41  32  70 CALM      30.11F
PAGE           PTSUNNY   45  32  60 CALM      30.11F
$$

AZZ009>014-017-182200-
NORTHEAST ARIZONA

CITY           SKY/WX    TMP DP  RH WIND       PRES   REMARKS
WINSLOW        NOT AVBL
SAINT JOHNS    CLOUDY    38  30  73 N3        30.08F
WINDOW ROCK    CLOUDY    38  26  62 CALM      30.08F
$$

AZZ023-182200-
GREATER PHOENIX AREA

CITY           SKY/WX    TMP DP  RH WIND       PRES   REMARKS
PHOENIX        PTSUNNY   59  43  55 CALM      30.07F
GLENDALE       PTSUNNY   59  43  55 N3        30.11F
DEER VALLEY    FAIR      56  43  61 NW3       30.08F
SCOTTSDALE     FAIR      57  40  52 CALM      30.09F
CHANDLER       PTSUNNY   59  46  63 VRB6      30.09F
$$

AZZ027-028-182200-
SOUTHWEST MARICOPA COUNTY AND PINAL COUNTY

CITY           SKY/WX    TMP DP  RH WIND       PRES   REMARKS
CASA GRANDE    PTSUNNY   57  45  62 CALM      30.09F
$$

AZZ503-504-507>509-182200-
SOUTHEAST ARIZONA

CITY           SKY/WX    TMP DP  RH WIND       PRES   REMARKS
TUCSON         PTSUNNY   57  46  66 N12       30.10F
DAVIS-MONTHAN  PTSUNNY   53  44  70 NW10      30.07F
RYAN FIELD       N/A     57  50  77 NW8       30.10F
NOGALES        LGT RAIN  47  41  80 SW9       30.10R
SAFFORD        CLOUDY    50  41  71 SE6       30.05F
$$

AZZ020-021-025-026-031-182200-
SOUTHWEST ARIZONA

CITY           SKY/WX    TMP DP  RH WIND       PRES   REMARKS
YUMA           FAIR     N/A N/A N/A N5        30.11F
$$

CAZ031-033-041-043-047-048-061-182200-
SOUTHERN CALIFORNIA

CITY           SKY/WX    TMP DP  RH WIND       PRES   REMARKS
DOWNTOWN L.A.  CLOUDY    62  45  53 CALM      30.14F
L.A. AIRPORT   PTSUNNY   58  47  66 CALM      30.15F
SAN DIEGO      PTSUNNY   64  47  53 NW9       30.17F
BURBANK        CLOUDY    60  44  55 CALM      30.13F
ONTARIO        FAIR      60  42  51 CALM      30.14F
RIVERSIDE      FAIR      61  43  51 SW7       30.14F
PALM SPRINGS   FAIR      66  38  35 VRB6      30.13F
EL CENTRO NAS  FAIR      65  43  44 N3        30.12F
IMPERIAL       FAIR      65  42  43 NW5       30.11F
BLYTHE         FAIR      62  48  60 N6        30.13F
$$

NVZ020-UTZ003-182200-
SOUTHERN NEVADA-UTAH

CITY           SKY/WX    TMP DP  RH WIND       PRES   REMARKS
LAS VEGAS      NOT AVBL
SALT LAKE CITY FAIR      43  32  65 SE5       30.12F
$$

NMZ009-TXZ055-182200-
NEW MEXICO-WEST TEXAS

CITY           SKY/WX    TMP DP  RH WIND       PRES   REMARKS
ALBUQUERQUE    CLOUDY    44  28  53 VRB6      30.09F
EL PASO        CLOUDY    55  36  48 S10       30.06F
$$


........................KEY........................
SKY/WX - SKY CONDITION/WEATHER
TMP    - TEMPERATURE IN FAHRENHEIT
DP     - DEW POINT IN FAHRENHEIT
RH     - RELATIVE HUMIDITY IN PERCENT
WIND   - DIRECTION AND SPEED IN MILES PER HOUR (MPH)
VRB    - VARIABLE WIND DIRECTION
PRES   - MEAN SEA LEVEL PRESSURE IN INCHES OF MERCURY
         F - FALLING PRESSURE   R - RISING PRESSURE
         S - STEADY PRESSURE
VSB    - VISIBILITY IN MILES
HX     - HEAT INDEX IN FAHRENHEIT
WCI    - WIND CHILL INDEX IN FAHRENHEIT
TC     - TEMPERATURE IN CELSIUS WHICH IS ALSO KNOWN AS
         TEMPERATURE IN CENTIGRADE
AFB    - AIR FORCE BASE
         LUKE AFB IS LUKE AIR FORCE BASE
         DAVIS-MONTHAN IS DAVIS-MONTHAN AIR FORCE BASE
NAS    - NAVAL AIR STATION
         EL CENTRO NAS IS EL CENTRO NAVAL AIR STATION
N/A    - NOT AVAILABLE



USA.gov is the U.S. government's official web portal to all federal, state and local government web resources and services.